Flag for Marshall Islands Weather past 2 weeks in Majuro, Marshall Islands

Now
80 °F

Partly cloudy.


Feels Like: 85 °F
Forecast: 78 / 86 °F
Wind: 2 mph from North

Location: Majuro Atoll

Current Time: Jul 23, 2014 at 3:44:07 AM

Latest Report: Jul 23, 2014 at 2:54 AM


Visibility: 15 mi

Pressure: 29.76 "Hg

Humidity: 84%

Dew point: 75 °F

Location of MajuroLocation

Historic Weather in Majuro — Graph

°F

Majuro temperature yesterday

Maximum temperature yesterday: 86 °F (at 1:52 PM)
Minimum temperature yesterday: 79 °F (at 12:55 AM)
Average temperature yesterday: 82 °F

Past Weeks' High & Low Weather Summary

 TemperatureHumidityPressure
High89 °F (Jul 9, 1:51 PM)95% (Jul 8, 1:56 AM)29.88 "Hg (Jul 8, 1:56 AM)
Low76 °F (Jul 13, 9:54 PM)70% (Jul 18, 11:54 AM)29.68 "Hg (Jul 9, 3:52 PM)
Average82 °F84%29.79 "Hg
* Reported Jul 8 1:56 AM — Jul 23 1:53 AM, Majuro, Weather by CustomWeather, © 2014

Note: Actual official high and low records may vary slightly from our data, if they occured in-between our weather recording intervals... More about our weather records

Advertising

Majuro weather history for previous 24 hours

 ConditionsComfort  
Time TempWeatherWind HumidityBarometerVisibility
1:53 AM
Jul 23
80 °FPartly cloudy.No wind84%29.77 "Hg15 mi
12:51 AM80 °FPartly cloudy.No wind84%29.78 "Hg15 mi
11:52 PM
Jul 22
80 °FPartly cloudy.No wind82%29.80 "Hg15 mi
10:51 PM81 °FPartly cloudy.2 mph80%29.82 "Hg15 mi
9:52 PM81 °FPartly cloudy.No wind82%29.82 "Hg15 mi
8:51 PM81 °FPassing clouds.No wind80%29.80 "Hg15 mi
6:52 PM83 °FBroken clouds.No wind76%29.77 "Hg15 mi
5:51 PM84 °FPartly sunny.No wind73%29.74 "Hg15 mi
4:50 PM85 °FPartly sunny.No wind72%29.73 "Hg15 mi
3:51 PM85 °FPartly sunny.No wind70%29.74 "Hg15 mi
2:53 PM86 °FPartly sunny.No wind75%29.75 "Hg15 mi
1:52 PM86 °FPartly sunny.No wind74%29.77 "Hg15 mi
12:55 PM85 °FPartly sunny.No wind74%29.78 "Hg15 mi
11:52 AM83 °FCloudy.No wind80%29.81 "Hg15 mi
10:50 AM85 °FMore clouds than sun.6 mph77%29.83 "Hg15 mi
9:50 AM84 °FCloudy.No wind83%29.84 "Hg15 mi
8:50 AM83 °FCloudy.No wind83%29.84 "Hg15 mi
7:55 AM82 °FCloudy.3 mph85%29.83 "Hg15 mi
6:52 AM81 °FOvercast.No wind86%29.81 "Hg15 mi
5:54 AM80 °FOvercast.3 mph86%29.79 "Hg15 mi
3:53 AM79 °FOvercast.No wind89%29.78 "Hg15 mi
Weather by CustomWeather, © 2014

See weather overviewHow to use our weather pages